Regional Weather Roundup
Issued by NWS

Home | Current Version | Previous Version | Text Only | Print | Product List | Glossary On
Versions: 1 2 3 4 5 6 7 8 9 10 11 12 13 14 15 16 17 18 19 20 21 22 23 24 25 26 27 28 29 30 31 32 33 34 35 36 37 38 39 40 41 42 43 44 45 46 47 48 49 50
000
ASUS44 KFWD 012305
RWRTX
NORTH TEXAS HOURLY WEATHER ROUNDUP
NATIONAL WEATHER SERVICE FORT WORTH TX
ISSUED BY NATIONAL WEATHER SERVICE TULSA OK
600 PM CDT WED OCT 01 2014

NOTE: "FAIR" INDICATES FEW OR NO CLOUDS BELOW 12,000 FEET WITH NO
SIGNIFICANT WEATHER AND/OR OBSTRUCTIONS TO VISIBILITY.

TXZ118-119-020000-
DALLAS/FORT WORTH METROPLEX

CITY           SKY/WX    TMP DP  RH WIND       PRES   REMARKS
DFW AIRPORT    MOSUNNY   92  65  40 S16       29.72S HX  94
DALLAS LOVE    MOSUNNY   92  65  40 S15       29.72S HX  94
FTW MEACHAM    SUNNY     92  65  40 SE20      29.71S HX  94
DAL-EXECUTIVE  SUNNY     92  64  39 S13       29.73S HX  93
FTW-ALLIANCE   SUNNY     91  64  40 S14G22    29.71S HX  92
FTW-NAS-JRB    MOSUNNY   94  63  35 SE15      29.76S HX  95
FTW-SPINKS     SUNNY     91  64  40 S13       29.74S HX  93
ARLINGTON      SUNNY     92  63  38 S17G24    29.72S HX  93
GRAND PRAIRIE  SUNNY     91  63  38 MISG      29.74S HX  92
ADDISON        SUNNY     91  63  38 S17G24    29.73F HX  92
MESQUITE       PTCLDY    91  64  40 SE10      29.74S HX  93
$$

TXZ091>094-102>105-117-120-121-131>134-020000-
NORTH CENTRAL TEXAS

CITY           SKY/WX    TMP DP  RH WIND       PRES   REMARKS
SHRMAN/DENISON CLEAR     89  65  45 S15       29.75S HX  91
GAINESVILLE    SUNNY     89  66  47 SE17      29.74S HX  91
BOWIE          CLEAR     91  64  41 SE13G20   29.71R HX  92
BRIDGEPORT     CLEAR     93  59  31 S15       29.72R HX  92
DECATUR        CLEAR     90  63  40 SE16G22   29.73R HX  90
DENTON         SUNNY     91  65  41 SE20G25   29.72S HX  93
MCKINNEY       SUNNY     90  67  46 S20       29.73S HX  93
GREENVILLE     MOSUNNY   90  63  40 SE10G16   29.76S HX  90
TERRELL        SUNNY     92  66  42 S13       29.75S HX  94
WAXAHACHIE     CLEAR     91  66  44 S13G21    29.75S HX  93
CLEBURNE       CLEAR     91  66  43 SE15G21   29.75S HX  94
GRANBURY       CLEAR     94  64  37 SE16      29.73S HX  95
$$

TXZ083>090-098>101-113>116-127>130-139>142-154-155-020000-
WESTERN NORTH TEXAS

CITY           SKY/WX    TMP DP  RH WIND       PRES   REMARKS
WICHITA FALLS  NOT AVBL
WF-KICKAPOO    PTCLDY    97  54  23 S13G21    29.68S HX  94
ABILENE        NOT AVBL
ABILENE-DYESS  SUNNY     92  65  39 S16       29.71S HX  94
BRECKENRIDGE     N/A     96  58  27 S17       29.69S HX  95
GRAHAM         CLEAR     96  58  28 SE10G23   29.67F HX  95
MINERAL WELLS    N/A    N/A N/A N/A MISG      29.70R
STEPHENVILLE   SUNNY     91  62  38 S14G20    29.77S HX  91
COMANCHE       CLEAR     92  61  34 S16G22    29.74S HX  92
BROWNWOOD      SUNNY     91  64  40 S9G18     29.74S HX  93
COLEMAN        MOSUNNY   95  57  27 S12       29.74S HX  94
BRADY          CLEAR     91  64  40 SE7       29.76S HX  93
$$

TXZ143>147-156>162-174-175-020000-
CENTRAL TEXAS

CITY           SKY/WX    TMP DP  RH WIND       PRES   REMARKS
WACO           MOSUNNY   91  66  43 S13       29.75R HX  93
WACO-TSTC      CLEAR     90  66  45 S12       29.75R HX  92
WACO-MCGREGOR  MOSUNNY   91  64  40 S13       29.75S HX  93
HILLSBORO      CLEAR     91  63  38 S15       29.75S HX  92
CORSICANA      SUNNY     92  65  40 SE14      29.76S HX  94
HEARNE         CLEAR     90  70  51 S8        29.76R HX  95
TEMPLE         SUNNY     90  64  43 S15       29.75S HX  91
KILLEEN GRAY   MOSUNNY   90  66  45 SE14      29.76S HX  92
KILLEEN-SKYLRK SUNNY     90  66  45 S12       29.76S HX  92
FORT HOOD      SUNNY     91  67  44 SE13G18   29.76S HX  94
GATESVILLE     CLEAR     91  66  43 S10       29.78R HX  94
HAMILTON       CLEAR     91  62  37 S10G21    29.78R HX  92
LAMPASAS       CLEAR     91  69  48 S7        29.77R HX  95
$$

TXZ095>097-106>112-122>126-135>138-148>153-164>167-020000-
EAST TEXAS

CITY           SKY/WX    TMP DP  RH WIND       PRES   REMARKS
PARIS          MOSUNNY   88  66  48 SE12G17   29.77S HX  90
MOUNT PLEASANT PTCLDY   N/A N/A N/A SE6       29.78S
GILMER         CLEAR     88  72  58 SE8       29.79S HX  94
MINEOLA        CLEAR     90  70  51 S6        29.77S HX  95
TYLER          SUNNY     89  70  53 SE7       29.77R HX  94
LONGVIEW       SUNNY     89  69  51 S10       29.78R HX  93
PALESTINE      PTCLDY    90  69  49 SE7       29.78S HX  95
JACKSONVILLE   CLEAR     88  70  56 SE5       29.81S HX  93
HENDERSON      CLEAR     89  68  50 S7        29.79S HX  92
NACOGDOCHES    MOSUNNY   86  72  62 SE13      29.80R HX  92
LUFKIN         SUNNY     86  74  67 E8        29.80R HX  94
$$

SUPPLEMENTAL OBSERVATIONS (CENTRAL)

CITY           SKY/WX    TMP DP  RH WIND       PRES   REMARKS
$$

SUPPLEMENTAL OBSERVATIONS (WEST)

CITY           SKY/WX    TMP DP  RH WIND       PRES   REMARKS
$$

SUPPLEMENTAL OBSERVATIONS (EAST)

CITY           SKY/WX    TMP DP  RH WIND       PRES   REMARKS
$$

SUPPLEMENTAL OBSERVATIONS ARE A COLLECTION OF AUTOMATED INSTRUMENTS
THAT ARE MAINTAINED BY A VARIETY OF FEDERAL AND STATE AGENCIES.
CERTAIN ELEMENTS...SUCH AS HUMIDITY VALUES AND SUSTAINED WIND
SPEEDS...MAY BE ESTIMATED.




USA.gov is the U.S. government's official web portal to all federal, state and local government web resources and services.